Location: Arthurs Seat
(13.1500°N, 59.6000°W)
Time: 17:30:49
(UTC+00:00)

Cosmos 2266 Rocket - Pass Details

Date: 25 August 2019
Orbit: 934 x 1009 km, 82.9° (Epoch: 23 September)

Event Time Altitude Azimuth Distance (km) Brightness Sun altitude
Rises 22:36:50 0° 4° (N) 3,581 7.1 -6.3°
Reaches altitude 10° 22:39:23 10° 9° (N) 2,636 6.3 -6.9°
Maximum altitude 22:45:13 53° 86° (E) 1,137 4.1 -8.3°
Drops below altitude 10° 22:51:04 10° 161° (SSE) 2,650 6.0 -9.7°
Sets 22:53:37 0° 166° (SSE) 3,601 6.7 -10.3°
